When you browse on this site, cookies collect data to enhance your experience and personalize the content and advertising you see.
Visit our Privacy Policy to learn more. By continuing to use the site, you agree to this use of cookies and data.
  • En España
  • Lista de países
  • Para 7 días
  • Temperatura del agua
  • El tiempo en el mapa
  • Informadores
  • user-avatar
    Iniciar sesión

    Tiempo cada hora Gevino

    Hoy, 6 Junio, Sábado

    Tiempo Temperatura Precipitaciones Viento Presión Humedad
    00:00 +10°C° 0 mm 3 mps 738 mmHg 93%
    01:00 +10°C° 0 mm 3 mps 738 mmHg 95%
    02:00 +10°C° 0 mm 3 mps 738 mmHg 96%
    03:00 +11°C° 0 mm 3 mps 738 mmHg 96%
    04:00 +12°C° 0 mm 3 mps 738 mmHg 96%
    05:00 +13°C° 0 mm 4 mps 738 mmHg 96%
    06:00 +14°C° 0 mm 4 mps 738 mmHg 93%
    07:00 +15°C° 0 mm 4 mps 738 mmHg 90%
    08:00 +17°C° 0 mm 5 mps 738 mmHg 87%
    09:00 +19°C° 0.2 mm 4 mps 738 mmHg 87%
    10:00 +20°C° 0.2 mm 4 mps 738 mmHg 86%
    11:00 +20°C° 0.2 mm 4 mps 739 mmHg 85%
    12:00 +21°C° 1 mm 4 mps 739 mmHg 85%
    13:00 +21°C° 1 mm 4 mps 739 mmHg 86%
    14:00 +21°C° 1 mm 4 mps 739 mmHg 86%
    15:00 +21°C° 0.5 mm 4 mps 739 mmHg 86%
    16:00 +21°C° 0.5 mm 4 mps 739 mmHg 86%
    17:00 +21°C° 0.5 mm 4 mps 739 mmHg 85%
    18:00 +20°C° 0.1 mm 3 mps 739 mmHg 88%
    19:00 +19°C° 0.1 mm 3 mps 740 mmHg 91%
    20:00 +18°C° 0.1 mm 2 mps 740 mmHg 94%
    21:00 +17°C° 0 mm 2 mps 741 mmHg 94%
    22:00 +16°C° 0 mm 2 mps 741 mmHg 94%
    23:00 +16°C° 0 mm 2 mps 742 mmHg 94%

    Mañana, 7 Junio, Domingo

    Tiempo Temperatura Precipitaciones Viento Presión Humedad
    00:00 +15°C° 0 mm 2 mps 742 mmHg 94%
    01:00 +14°C° 0 mm 2 mps 743 mmHg 94%
    02:00 +14°C° 0 mm 1 mps 743 mmHg 93%
    03:00 +14°C° 0 mm 1 mps 743 mmHg 93%
    04:00 +14°C° 0 mm 1 mps 743 mmHg 92%
    05:00 +15°C° 0 mm 1 mps 744 mmHg 91%
    06:00 +16°C° 0 mm 1 mps 744 mmHg 87%
    07:00 +19°C° 0 mm 1 mps 744 mmHg 82%
    08:00 +21°C° 0 mm 1 mps 745 mmHg 78%
    09:00 +22°C° 0 mm 1 mps 745 mmHg 73%
    10:00 +23°C° 0 mm 1 mps 745 mmHg 68%
    11:00 +24°C° 0 mm 1 mps 745 mmHg 64%
    12:00 +25°C° 0 mm 1 mps 745 mmHg 62%
    13:00 +25°C° 0 mm 1 mps 745 mmHg 60%
    14:00 +26°C° 0 mm 1 mps 745 mmHg 58%
    15:00 +26°C° 0 mm 1 mps 745 mmHg 62%
    16:00 +26°C° 0 mm 2 mps 744 mmHg 65%
    17:00 +26°C° 0 mm 2 mps 744 mmHg 69%
    18:00 +24°C° 0 mm 2 mps 744 mmHg 73%
    19:00 +21°C° 0 mm 2 mps 744 mmHg 78%
    20:00 +20°C° 0 mm 2 mps 744 mmHg 82%
    21:00 +19°C° 0 mm 2 mps 744 mmHg 85%
    22:00 +18°C° 0 mm 2 mps 744 mmHg 88%
    23:00 +18°C° 0 mm 3 mps 744 mmHg 91%

    Pasado mañana, 8 Junio, Lunes

    Tiempo Temperatura Precipitaciones Viento Presión Humedad
    00:00 +18°C° 0 mm 2 mps 744 mmHg 92%
    01:00 +17°C° 0 mm 2 mps 745 mmHg 94%
    02:00 +17°C° 0 mm 2 mps 745 mmHg 95%
    03:00 +17°C° 0.1 mm 2 mps 745 mmHg 95%
    04:00 +18°C° 0.1 mm 2 mps 745 mmHg 95%
    05:00 +18°C° 0.1 mm 2 mps 744 mmHg 95%
    06:00 +20°C° 0 mm 2 mps 745 mmHg 91%
    07:00 +21°C° 0 mm 2 mps 745 mmHg 88%
    08:00 +24°C° 0 mm 2 mps 745 mmHg 84%
    09:00 +25°C° 0.1 mm 3 mps 745 mmHg 81%
    10:00 +26°C° 0.1 mm 3 mps 745 mmHg 78%
    11:00 +27°C° 0.1 mm 3 mps 745 mmHg 74%
    12:00 +27°C° 1.1 mm 3 mps 745 mmHg 74%
    13:00 +27°C° 1.1 mm 3 mps 745 mmHg 75%
    14:00 +27°C° 1.1 mm 2 mps 744 mmHg 75%
    15:00 +27°C° 1.2 mm 2 mps 744 mmHg 75%
    16:00 +27°C° 1.2 mm 1 mps 744 mmHg 76%
    17:00 +27°C° 1.2 mm 1 mps 744 mmHg 76%
    18:00 +25°C° 0.3 mm 1 mps 744 mmHg 80%
    19:00 +24°C° 0.3 mm 1 mps 744 mmHg 84%
    20:00 +22°C° 0.3 mm 1 mps 744 mmHg 88%
    21:00 +22°C° 0.1 mm 1 mps 744 mmHg 89%
    22:00 +21°C° 0.1 mm 1 mps 744 mmHg 91%
    23:00 +20°C° 0.1 mm 1 mps 744 mmHg 92%

    9 Junio, Martes

    Tiempo Temperatura Precipitaciones Viento Presión Humedad
    00:00 +20°C° 0.1 mm 1 mps 744 mmHg 93%
    01:00 +20°C° 0.1 mm 1 mps 744 mmHg 93%
    02:00 +19°C° 0.1 mm 1 mps 744 mmHg 93%
    03:00 +20°C° 0.1 mm 1 mps 744 mmHg 93%
    04:00 +20°C° 0.1 mm 1 mps 744 mmHg 93%
    05:00 +20°C° 0.1 mm 1 mps 745 mmHg 93%
    06:00 +22°C° 0 mm 1 mps 745 mmHg 89%
    07:00 +23°C° 0 mm 1 mps 745 mmHg 85%
    08:00 +24°C° 0 mm 1 mps 745 mmHg 81%
    09:00 +25°C° 0 mm 1 mps 745 mmHg 77%
    10:00 +26°C° 0 mm 1 mps 745 mmHg 72%
    11:00 +27°C° 0 mm 1 mps 745 mmHg 68%
    12:00 +28°C° 0.2 mm 1 mps 745 mmHg 67%
    13:00 +28°C° 0.2 mm 1 mps 745 mmHg 66%
    14:00 +28°C° 0.2 mm 1 mps 745 mmHg 66%
    15:00 +27°C° 0.6 mm 1 mps 745 mmHg 71%
    16:00 +27°C° 0.6 mm 2 mps 744 mmHg 77%
    17:00 +26°C° 0.6 mm 2 mps 744 mmHg 82%
    18:00 +25°C° 0.2 mm 2 mps 744 mmHg 86%
    19:00 +24°C° 0.2 mm 2 mps 744 mmHg 89%
    20:00 +23°C° 0.2 mm 2 mps 744 mmHg 92%
    21:00 +21°C° 0 mm 2 mps 744 mmHg 93%
    22:00 +20°C° 0 mm 2 mps 744 mmHg 95%
    23:00 +20°C° 0 mm 2 mps 745 mmHg 96%

    10 Junio, Miércoles

    Tiempo Temperatura Precipitaciones Viento Presión Humedad
    00:00 +19°C° 0 mm 2 mps 744 mmHg 97%
    01:00 +19°C° 0 mm 2 mps 744 mmHg 97%
    02:00 +19°C° 0 mm 3 mps 744 mmHg 97%
    03:00 +19°C° 0 mm 3 mps 744 mmHg 97%
    04:00 +19°C° 0 mm 3 mps 744 mmHg 97%
    05:00 +19°C° 0 mm 3 mps 744 mmHg 97%
    06:00 +20°C° 0 mm 3 mps 744 mmHg 94%
    07:00 +21°C° 0 mm 3 mps 744 mmHg 91%
    08:00 +22°C° 0 mm 3 mps 744 mmHg 88%
    09:00 +24°C° 0.2 mm 3 mps 744 mmHg 84%
    10:00 +25°C° 0.2 mm 3 mps 744 mmHg 80%
    11:00 +26°C° 0.2 mm 4 mps 744 mmHg 76%
    12:00 +26°C° 0.2 mm 4 mps 744 mmHg 73%
    13:00 +27°C° 0.2 mm 3 mps 743 mmHg 71%
    14:00 +27°C° 0.2 mm 3 mps 743 mmHg 69%
    15:00 +27°C° 0.3 mm 3 mps 743 mmHg 72%
    16:00 +27°C° 0.3 mm 3 mps 743 mmHg 74%
    17:00 +26°C° 0.3 mm 3 mps 743 mmHg 77%
    18:00 +25°C° 0.1 mm 3 mps 742 mmHg 82%
    19:00 +23°C° 0.1 mm 2 mps 742 mmHg 86%
    20:00 +21°C° 0.1 mm 2 mps 742 mmHg 90%
    21:00 +20°C° 0 mm 2 mps 742 mmHg 92%
    22:00 +19°C° 0 mm 2 mps 742 mmHg 93%
    23:00 +19°C° 0 mm 2 mps 742 mmHg 94%

    11 Junio, Jueves

    Tiempo Temperatura Precipitaciones Viento Presión Humedad
    00:00 +18°C° 0 mm 2 mps 742 mmHg 95%
    01:00 +18°C° 0 mm 2 mps 742 mmHg 95%
    02:00 +17°C° 0 mm 2 mps 742 mmHg 96%
    03:00 +18°C° 0 mm 2 mps 742 mmHg 96%
    04:00 +18°C° 0 mm 2 mps 742 mmHg 95%
    05:00 +18°C° 0 mm 2 mps 741 mmHg 95%
    06:00 +19°C° 0 mm 2 mps 741 mmHg 91%
    07:00 +21°C° 0 mm 2 mps 741 mmHg 87%
    08:00 +23°C° 0 mm 2 mps 741 mmHg 82%
    09:00 +24°C° 0.2 mm 2 mps 741 mmHg 79%
    10:00 +25°C° 0.2 mm 2 mps 741 mmHg 76%
    11:00 +26°C° 0.2 mm 2 mps 741 mmHg 73%
    12:00 +27°C° 1.1 mm 2 mps 741 mmHg 71%
    13:00 +27°C° 1.1 mm 2 mps 740 mmHg 70%
    14:00 +28°C° 1.1 mm 2 mps 740 mmHg 68%
    15:00 +28°C° 0.2 mm 2 mps 740 mmHg 69%
    16:00 +28°C° 0.2 mm 2 mps 740 mmHg 70%
    17:00 +28°C° 0.2 mm 2 mps 740 mmHg 71%
    18:00 +26°C° 0.1 mm 2 mps 740 mmHg 76%
    19:00 +24°C° 0.1 mm 1 mps 740 mmHg 81%
    20:00 +23°C° 0.1 mm 1 mps 740 mmHg 86%
    21:00 +22°C° 0 mm 1 mps 740 mmHg 87%
    22:00 +21°C° 0 mm 1 mps 740 mmHg 89%
    23:00 +20°C° 0 mm 1 mps 740 mmHg 90%
    Mostrar más